Location: Errabaliem
(16.8108°N, 80.4255°E)
Time: 13:21:21
(UTC+00:00)

CZ-4B R/B - Pass Details

Date: 05 August 2024
Orbit: 807 x 881 km, 99.0° (Epoch: 11 September)

Event Time Altitude Azimuth Distance (km) Brightness Sun altitude
Exits shadow 14:25:37 28° 132° (SE) 1,561 4.0 -18.0°
Maximum altitude 14:28:11 48° 75° (ENE) 1,131 3.5 -18.6°
Drops below altitude 10° 14:33:34 10° 2° (N) 2,533 6.0 -19.7°
Sets 14:36:02 0° 357° (N) 3,474 6.8 -20.3°
